Preview of NWS' New Version of Forecast
This preview is not operational and should not be used for support decisions.

Regional Weather Roundup (RWR)

Issued by National Weather Service (NWS)

                            
000
ASUS46 KSEW 160010
RWRWA 

WASHINGTON REGIONAL WEATHER ROUNDUP
NATIONAL WEATHER SERVICE SEATTLE WA
500 PM PDT MON JUL 15 2019

NOTE:"FAIR" INDICATES FEW OR NO CLOUDS BELOW 12,000 FEET WITH NO 
SIGNIFICANT WEATHER AND/OR OBSTRUCTIONS TO VISIBILITY.

WAZ507-509-555>559-160100-
SEATTLE, TACOMA, EVERETT, AND VICINITY
  
CITY           SKY/WX    TMP DP  RH WIND       PRES   REMARKS
EVERETT        CLOUDY    70  55  59 SW8       30.07F                  
6HR MIN TEMP:  66; 6HR MAX TEMP:  74;                                

BOEING FIELD   PTSUNNY   70  57  63 S8        30.06F                  
6HR MIN TEMP:  65; 6HR MAX TEMP:  71; 6HR PCP:  0.03;                

RENTON         CLOUDY    70  61  73 S5        30.06F                  
6HR MIN TEMP:  66; 6HR MAX TEMP:  70; 6HR PCP: TRACE;                

SEATAC AIRPORT PTSUNNY   70  60  70 SW6       30.07F                  
6HR MIN TEMP:  64; 6HR MAX TEMP:  70; 6HR PCP:  0.02;                

JBLM-MCCHORD   CLOUDY    69  65  86 SW5       30.06F                  
6HR MIN TEMP:  63; 6HR MAX TEMP:  69; 6HR PCP:  0.04;                

PUYALLUP       PTSUNNY   70  63  78 CALM      30.07F                  
BREMERTON      CLOUDY    68  58  70 SW7       30.06F                  
6HR MIN TEMP:  63; 6HR MAX TEMP:  68; 6HR PCP:  0.01;                

JBLM-FT LEWIS  LGT RAIN  68  65  93 W7        30.06F                  
6HR MIN TEMP:  63; 6HR MAX TEMP:  69; 6HR PCP:  0.02;                

TACOMA NARROWS PTSUNNY   67  58  72 S5        30.06F                  
6HR MIN TEMP:  62; 6HR MAX TEMP:  68; 6HR PCP:  0.03;                

$$
 
WAZ001-503-506-510-514-515-160100-
NORTH INTERIOR
  
CITY           SKY/WX    TMP DP  RH WIND       PRES   REMARKS
BELLINGHAM     SUNNY     71  56  58 S9        30.03F                  
6HR MIN TEMP:  64; 6HR MAX TEMP:  71;                                

FRIDAY HARBOR  CLOUDY    66  56  70 VRB6      30.05F                  
6HR MIN TEMP:  58; 6HR MAX TEMP:  66; 6HR PCP: TRACE;                

EASTSOUND      SUNNY     72  55  56 S12       30.02S                  
PORT ANGELES   CLOUDY    65  57  75 W9        30.07S                  
6HR MIN TEMP:  63; 6HR MAX TEMP:  68; 6HR PCP: TRACE;                

EDIZ HOOK      CLOUDY    61  56  84 W16G24    30.06S                  
6HR MIN TEMP:  59; 6HR MAX TEMP:  64;                                

PORT TOWNSEND  CLOUDY    68  55  64 NW7       30.05S                  
NAS WHIDBEY    PTSUNNY   68  56  65 W10       30.09S                  
6HR MIN TEMP:  62; 6HR MAX TEMP:  72; 6HR PCP: TRACE;                

ARLINGTON      CLOUDY    73  56  54 SW7       30.05F                  
6HR MIN TEMP:  68; 6HR MAX TEMP:  73;                                

BURLINGTON     PTSUNNY   75  59  57 S7G14     30.05S                  
$$
 
WAZ020-022-039-040-504-511-512-160100-
SOUTHWEST INTERIOR
  
CITY           SKY/WX    TMP DP  RH WIND       PRES   REMARKS
SHELTON        CLOUDY    69  59  70 S5        30.04F                  
6HR MIN TEMP:  64; 6HR MAX TEMP:  70; 6HR PCP:  0.05;                

OLYMPIA        CLOUDY    68  60  75 CALM      30.06F                  
6HR MIN TEMP:  62; 6HR MAX TEMP:  70; 6HR PCP: TRACE;                

CHEHALIS       PTSUNNY   72  63  73 S7        30.07S                  
KELSO          LGT RAIN  68  65  90 CALM      30.07F                  
6HR MIN TEMP:  63; 6HR MAX TEMP:  69; 6HR PCP:  0.02;                

VANCOUVER      LGT RAIN  75  57  53 CALM      30.05F                  
6HR MIN TEMP:  65; 6HR MAX TEMP:  75; 6HR PCP: TRACE;                

SCAPPOOSE, OR  PTSUNNY   74  59  59 VRB3      30.04F                  
6HR MIN TEMP:  64; 6HR MAX TEMP:  75; 6HR PCP: TRACE;                

PORTLAND, OR   PTSUNNY   76  58  53 CALM      30.05F                  
6HR MIN TEMP:  67; 6HR MAX TEMP:  77; 6HR PCP: TRACE;                

$$
 
WAZ021-516-517-160100-
WASHINGTON COAST
  
CITY           SKY/WX    TMP DP  RH WIND       PRES   REMARKS
FORKS          PTSUNNY   70  57  63 W10       30.06S                  
6HR MIN TEMP:  66; 6HR MAX TEMP:  72;                                

HOQUIAM        PTSUNNY   70  61  73 W13       30.07F                  
6HR MIN TEMP:  66; 6HR MAX TEMP:  71;                                

ASTORIA, OR    CLOUDY    67  62  84 SW12      30.06F                  
$$
 
WAZ019-023-024-040-567>569-160100-
CASCADE MOUNTAINS AND COLUMBIA GORGE
  
CITY           SKY/WX    TMP DP  RH WIND       PRES   REMARKS
STAMPEDE PASS  CLOUDY    56  52  86 VRB5      30.12F                  
6HR MIN TEMP:  53; 6HR MAX TEMP:  58;                                

TROUTDALE, OR  CLOUDY    75  59  57 E5        30.05F                  
6HR MIN TEMP:  68; 6HR MAX TEMP:  75;                                

HOOD RIVER, OR PTCLDY    75  54  46 W12G24    30.03F                  
THE DALLES, OR SUNNY     79  55  43 NW22G29   29.98F                  
6HR MIN TEMP:  67; 6HR MAX TEMP:  80; 6HR PCP:  0.01;                

$$

WAZ026-027-041>044-520-521-160100-
EAST SLOPES
  
CITY           SKY/WX    TMP DP  RH WIND       PRES   REMARKS
OMAK           CLOUDY    78  45  30 SE10      29.94F                  
6HR MIN TEMP:  73; 6HR MAX TEMP:  82;                                

WENATCHEE      CLOUDY    75  49  39 SW9       29.95F                  
6HR MIN TEMP:  65; 6HR MAX TEMP:  75; 6HR PCP:  0.01;                

ELLENSBURG     LGT RAIN  72  53  51 NW13      29.99F                  
6HR MIN TEMP:  64; 6HR MAX TEMP:  80; 6HR PCP: TRACE;                

YAKIMA         PTSUNNY   80  51  36 E3        29.97F                  
6HR MIN TEMP:  66; 6HR MAX TEMP:  81; 6HR PCP:  0.04;                

SUNNYSIDE ARPT PTCLDY    80  57  44 W7        29.96                   
6HR MIN TEMP:  69; 6HR MAX TEMP:  81;                                

YAKIMA TC      FAIR      76  49  38 CALM      29.96F                  
6HR MIN TEMP:  64; 6HR MAX TEMP:  79; 6HR PCP:  0.03;                

$$

WAZ028-034-035-160100-
COLUMBIA BASIN
  
CITY           SKY/WX    TMP DP  RH WIND       PRES   REMARKS
EPHRATA        MOSUNNY   79  45  29 S9        29.95F                  
6HR MIN TEMP:  73; 6HR MAX TEMP:  81; 6HR PCP: TRACE;                

MOSES LAKE     MOSUNNY   80  48  32 S8        29.97F                  
6HR MIN TEMP:  74; 6HR MAX TEMP:  82; 6HR PCP: TRACE;                

PASCO          MOSUNNY   83  53  35 VRB5      29.95F                  
6HR MIN TEMP:  73; 6HR MAX TEMP:  84; 6HR PCP: TRACE;                

RICHLAND ARPT  PTCLDY    84  55  36 S7        29.94                   
6HR MIN TEMP:  71; 6HR MAX TEMP:  84; 6HR PCP:  0.01;                

HERMISTON, OR  PTSUNNY   80  53  39 W9        29.96F                  
6HR MIN TEMP:  77; 6HR MAX TEMP:  84; 6HR PCP: TRACE;                

$$

WAZ036>038-160100-
NORTHEAST WASHINGTON
  
CITY           SKY/WX    TMP DP  RH WIND       PRES   REMARKS
SPOKANE GEIGER CLOUDY    70  44  39 S5        30.02F                  
6HR MIN TEMP:  68; 6HR MAX TEMP:  71; 6HR PCP: TRACE;                

SPOKANE FELTS  LGT RAIN  71  51  49 CALM      30.02S                  
6HR MIN TEMP:  70; 6HR MAX TEMP:  75; 6HR PCP: TRACE;                

FAIRCHILD AFB  CLOUDY    70  45  40 W6        30.02F                  
6HR MIN TEMP:  66; 6HR MAX TEMP:  70; 6HR PCP:  0.01;                

COEURDALENE,ID LGT RAIN  69  52  54 W6        30.04R                  
6HR MIN TEMP:  68; 6HR MAX TEMP:  74; 6HR PCP: TRACE;                

DEER PARK      CLOUDY    68  50  52 SE5       30.02F                  
6HR MIN TEMP:  65; 6HR MAX TEMP:  70; 6HR PCP: TRACE;                

$$

WAZ029>033-160100-
SOUTHEAST WASHINGTON
  
CITY           SKY/WX    TMP DP  RH WIND       PRES   REMARKS
PULLMAN        CLOUDY    73  44  35 NW8G20    30.03F                  
6HR MIN TEMP:  73; 6HR MAX TEMP:  78; 6HR PCP: TRACE;                

LEWISTON, ID   MOSUNNY   84  42  22 NW12G26   29.95S                  
6HR MIN TEMP:  77; 6HR MAX TEMP:  87;                                

WALLA WALLA    LGT RAIN  78  51  38 W13       29.99S                  
6HR MIN TEMP:  77; 6HR MAX TEMP:  83; 6HR PCP: TRACE;                

PENDLETON, OR  CLOUDY    76  51  41 W8        30.01S                  
6HR MIN TEMP:  74; 6HR MAX TEMP:  82; 6HR PCP: TRACE;                

$$